This is the latest recevied weather packets stored in our database for station/object LU1MQF-13. If no packets are shown the sender has not sent any weather packets the latest 10 day(s).
| Time | Temp. | Humidity | Pressure | Rain* | Wind** | Luminosity | Snow |
|---|---|---|---|---|---|---|---|
| 1777238808 | 16.11° C | 38% | 944.6 hPa | - | - | - | - |
| 1777237908 | 16.11° C | 39% | 944.4 hPa | - | - | - | - |
| 1777237008 | 17.22° C | 42% | 944.4 hPa | - | - | - | - |
| 1777236107 | 17.22° C | 40% | 944.2 hPa | - | - | - | - |
| 1777235209 | 17.22° C | 35% | 944.1 hPa | - | - | - | - |
| 1777234307 | 17.22° C | 32% | 943.9 hPa | - | - | - | - |
| 1777233408 | 17.22° C | 33% | 943.7 hPa | - | - | - | - |
| 1777232507 | 17.22° C | 32% | 943.6 hPa | - | - | - | - |
| 1777231607 | 17.78° C | 33% | 943.4 hPa | - | - | - | - |
| 1777230707 | 17.78° C | 33% | 943.3 hPa | - | - | - | - |
| 1777229808 | 18.89° C | 32% | 943.2 hPa | - | - | - | - |
| 1777228907 | 20° C | 39% | 943.3 hPa | - | - | - | - |
| 1777228007 | 20° C | 34% | 943.4 hPa | - | - | - | - |
| 1777227107 | 20° C | 34% | 943.5 hPa | - | - | - | - |
| 1777226208 | 20° C | 35% | 943.6 hPa | - | - | - | - |
| 1777225308 | 20° C | 34% | 943.6 hPa | - | - | - | - |
| 1777224407 | 20° C | 35% | 943.8 hPa | - | - | - | - |
| 1777223507 | 20° C | 34% | 943.7 hPa | - | - | - | - |
| 1777222608 | 18.89° C | 35% | 944 hPa | - | - | - | - |
| 1777221707 | 18.89° C | 35% | 944.1 hPa | - | - | - | - |
| 1777220809 | 18.89° C | 35% | 944.4 hPa | - | - | - | - |
| 1777219907 | 18.89° C | 39% | 944.5 hPa | - | - | - | - |
| 1777219541 | 17.22° C | 40% | 944.7 hPa | - | - | - | - |
| 1777218638 | 17.22° C | 40% | 944.8 hPa | - | - | - | - |
| 1777217738 | 17.22° C | 39% | 944.8 hPa | - | - | - | - |
* Rain since midnight (hover to see other rain measurements)
** Current wind speed in m/s (hover to see current wind gust speed)